Regional Weather Roundup
Issued by NWS

Home | Current Version | Previous Version | Text Only | Print | Product List | Glossary On
Versions: 1 2 3 4 5 6 7 8 9 10 11 12 13 14 15 16 17 18 19 20 21 22 23 24 25 26 27 28 29 30 31 32 33 34 35 36 37 38 39 40 41 42 43 44 45 46 47 48 49 50
000
ASCA44 KEWX 170020
RWRMX

LATIN AMERICA AND CARIBBEAN REGIONAL WEATHER ROUNDUP
NATIONAL WEATHER SERVICE AUSTIN/SAN ANTONIO TX
700 PM CDT MON OCT 16 2017

NOTE: "FAIR" INDICATED FEW OR NO CLOUDS BELOW 12,000 FEET WITH NO
SIGNIFICANT WEATHER AND/OR OBSTRUCTIONS TO VISIBILITY.

BAJA CALIFORNIA

CITY           SKY/WX    TMP DP  RH WIND       PRES   REMARKS
LORETO           N/A    N/A N/A N/A MISG        N/A
LA PAZ         SUNNY     88  68  51 N14       29.88S HX  91
MEXICALI       SUNNY     95  19   6 NW6       29.75
S.J. DEL CABO  SUNNY     86  70  58 SE17      29.89  HX  90
TIJUANA        SUNNY     86  46  25 W12       29.99

NORTHWESTERN MEXICO

CITY           SKY/WX    TMP DP  RH WIND       PRES   REMARKS
CULIACAN       CLEAR     97  72  44 SW12      29.83R HX 105
DURANGO        PTCLDY    72  46  40 NE10      30.34S
GUAYMAS        MOSUNNY   97  70  41 W17       29.80S HX 103
HERMOSILLO     SUNNY    104  54  18 S6        29.88S HX 102
CD. JUAREZ     CLEAR     75  41  29 E7        30.29F
LOS MOCHIS     CLEAR    N/A N/A N/A W9        29.86R
OBREGON        CLEAR     99  55  23 W10       29.82R HX  97

NORTHEASTERN MEXICO

CITY           SKY/WX    TMP DP  RH WIND       PRES   REMARKS
CHIHUAHUA      CLEAR     73  46  38 E12       30.31S
MATAMOROS        N/A     75  57  53 N8        30.15R
MONCLOVA         N/A    N/A N/A N/A MISG        N/A
MONTERREY      PTCLDY    72  50  46 NW6       30.23S
NUEVO LAREDO   CLEAR     73  43  33 NW8       30.23S
PIEDRAS NEGRAS   N/A    N/A N/A N/A MISG        N/A
REYNOSA        CLEAR     75  43  31 N9        30.17R
SALTILLO       MOCLDY    57  46  67 CALM      30.38F
TORREON        CLEAR     77  54  44 NE7       30.26S
CD. VICTORIA   CLEAR     72  52  49 MISG      30.16R

WESTERN MEXICO

CITY           SKY/WX    TMP DP  RH WIND       PRES   REMARKS
AGUASCALIENTES CLEAR     72  45  37 E10       30.33R
COLIMA         PTCLDY    79  75  89 CALM      29.98R
DEL BAJIO      MOCLDY    68  52  56 NE13      30.37R
GUADALAJARA    PTCLDY    79  50  36 E14       30.19R
MANZANILLO     PTCLDY    88  81  79 CALM      29.84R HX 105
MAZATLAN       PTCLDY    90  81  74 NW7       29.85  HX 108
P. VALLARTA    CLEAR     86  81  84 SW6       29.85R HX 102
URUAPAN        MOCLDY    72  66  83 CALM      30.18R
ZACATECAS      DRIZZLE   59  54  82 E12       30.39R

CENTRAL MEXICO

CITY           SKY/WX    TMP DP  RH WIND       PRES   REMARKS
CUERNAVACA     MOCLDY    77  63  61 W2        30.09
MEXICO CITY    CLOUDY    61  48  63 N13       30.41R
PUEBLA         MOCLDY    59  50  72 N15       30.38
QUERETARO      CLOUDY    61  54  77 NE14G25   30.41
S. LUIS POTOSI PTCLDY    66  46  48 SE8       30.35R
TAMPICO        MOCLDY    79  57  47 N21       30.11
TOLUCA         MOCLDY   N/A N/A N/A NE18      30.43

SOUTHERN MEXICO

CITY           SKY/WX    TMP DP  RH WIND       PRES   REMARKS
ACAPULCO       CLEAR     86  79  79 W9        29.78R HX  99
B. DE HUATULCO   N/A    N/A N/A N/A MISG        N/A
OAXACA         MOCLDY    75  48  38 NE12      30.20R
P. ESCONDIDO   PTCLDY    84  77  79 CALM      29.91  HX  94
VERACRUZ       PTCLDY    77  68  73 N17G29    29.98
ZIHUATANEJO    MOCLDY    88  77  70 SW12      29.81  HX 100

YUCATAN PENINSULA

CITY           SKY/WX    TMP DP  RH WIND       PRES   REMARKS
CAMPECHE       PTCLDY    86  79  79 W12G23    29.85R HX  99
CANCUN         MOCLDY    81  81 100 NW3       29.91R HX  91
CHETUMAL       PTCLDY    82  75  78 CALM      29.87R
CD. DEL CARMEN CLOUDY   N/A N/A N/A NW12      29.91R
COZUMEL        PTCLDY    81  77  89 CALM      29.88R
MERIDA         CLOUDY    77  75  94 W7        29.91R THUNDER
MINATITLAN     MOCLDY    81  73  78 N23G35    29.90
TAPACHULA      PTCLDY    84  79  84 CALM      29.78R HX  96
TUX. GUTIERREZ MOCLDY    77  68  73 NW25      29.94R
VILLAHERMOSA   MOCLDY   N/A N/A N/A CALM      29.96R

CENTRAL AMERICA

CITY           SKY/WX    TMP DP  RH WIND       PRES   REMARKS
BELIZE CITY    PTCLDY    82  79  89 CALM      29.87R HX  93
MANAGUA        PTCLDY    84  77  79 E5        29.74R HX  94

CARIBBEAN

CITY           SKY/WX    TMP DP  RH WIND       PRES   REMARKS
ARUBA          PTCLDY    86  79  79 E25G37    29.77R HX  99
CURACAO        PTCLDY    84  77  79 E20       29.83R HX  94
KINGSTON       PTCLDY    84  77  79 N6        29.86R HX  94
NASSAU         PTCLDY    82  75  78 N3        29.92R
SAN JUAN       LGT RAIN  79  75  89 S10G21    29.98R
SANTO DOMINGO  MOCLDY    82  77  83 SE7       29.92R HX  91
ST. KITTS      MOCLDY    81  77  89 E18       29.97S
ST. THOMAS     PTCLDY    82  73  74 SE12G20   29.99

$$




USA.gov is the U.S. government's official web portal to all federal, state and local government web resources and services.